Location: Katowice
(50.2611°N, 19.0242°E)
Time: 09:18:59
(UTC+02:00)

A-11 Canister half - Pass Details

Date: 29 July 2019
Orbit: 1526 x 1682 km, 47.3° (Epoch: 24 August)

Event Time Altitude Azimuth Distance (km) Brightness Sun altitude
Rises 23:23:41 0° 279° (W) 4,909 12.1 -18.5°
Reaches altitude 10° 23:26:53 10° 277° (W) 3,905 11.5 -18.7°
Maximum altitude 23:36:42 66° 198° (SSW) 1,744 9.0 -19.2°
Enters shadow 23:45:10 14° 121° (ESE) 3,464 10.4 -19.6°
Drops below altitude 10° 23:46:11 10° 120° (ESE) 3,777 - -19.6°
Sets 23:49:14 0° 117° (ESE) 4,741 - -19.8°
